When you browse on this site, cookies collect data to enhance your experience and personalize the content and advertising you see.
Visit our Privacy Policy to learn more. By continuing to use the site, you agree to this use of cookies and data.
  • In Spain
  • List of Countries
  • For 7 days
  • Water Temperature
  • Weather Map
  • Weather Widgets
  • user-avatar
    Login

    Hourly Weather Kruzhylivka

    Today, 21 September, Saturday

    Time Temperature Precipitation Wind Pressure Humidity
    00:00 +11°C° 0.2 mm 1 mps 754 mmHg 61%
    01:00 +10°C° 0 mm 1 mps 754 mmHg 64%
    02:00 +9°C° 0 mm 1 mps 753 mmHg 66%
    03:00 +8°C° 0 mm 0 mps 754 mmHg 65%
    04:00 +8°C° 0 mm 1 mps 754 mmHg 67%
    05:00 +8°C° 0 mm 1 mps 754 mmHg 69%
    06:00 +8°C° 0 mm 1 mps 754 mmHg 70%
    07:00 +9°C° 0.1 mm 1 mps 754 mmHg 65%
    08:00 +10°C° 0.1 mm 2 mps 754 mmHg 60%
    09:00 +13°C° 0 mm 2 mps 754 mmHg 56%
    10:00 +13°C° 0.1 mm 3 mps 754 mmHg 50%
    11:00 +14°C° 0.1 mm 3 mps 754 mmHg 45%
    12:00 +16°C° 0.1 mm 3 mps 754 mmHg 40%
    13:00 +15°C° 0.1 mm 4 mps 754 mmHg 39%
    14:00 +15°C° 0.1 mm 4 mps 754 mmHg 37%
    15:00 +17°C° 0.1 mm 4 mps 754 mmHg 36%
    16:00 +15°C° 0.1 mm 4 mps 754 mmHg 40%
    17:00 +14°C° 0.1 mm 4 mps 754 mmHg 45%
    18:00 +13°C° 0.1 mm 3 mps 754 mmHg 49%
    19:00 +12°C° 0 mm 3 mps 755 mmHg 55%
    20:00 +10°C° 0 mm 4 mps 755 mmHg 60%
    21:00 +8°C° 0 mm 4 mps 755 mmHg 66%
    22:00 +9°C° 0 mm 3 mps 755 mmHg 65%
    23:00 +8°C° 0 mm 3 mps 755 mmHg 65%

    Tomorrow, 22 September, Sunday

    Time Temperature Precipitation Wind Pressure Humidity
    00:00 +8°C° 0 mm 3 mps 755 mmHg 65%
    01:00 +6°C° 0 mm 4 mps 755 mmHg 65%
    02:00 +6°C° 0 mm 4 mps 755 mmHg 66%
    03:00 +6°C° 0 mm 4 mps 755 mmHg 66%
    04:00 +6°C° 0 mm 5 mps 755 mmHg 64%
    05:00 +6°C° 0 mm 5 mps 755 mmHg 62%
    06:00 +6°C° 0 mm 5 mps 754 mmHg 60%
    07:00 +6°C° 0 mm 7 mps 754 mmHg 57%
    08:00 +7°C° 0 mm 8 mps 754 mmHg 53%
    09:00 +10°C° 0 mm 9 mps 753 mmHg 50%
    10:00 +9°C° 0.2 mm 10 mps 753 mmHg 56%
    11:00 +9°C° 0.2 mm 10 mps 752 mmHg 61%
    12:00 +9°C° 0.2 mm 10 mps 751 mmHg 67%
    13:00 +11°C° 0.1 mm 10 mps 751 mmHg 68%
    14:00 +12°C° 0.1 mm 10 mps 751 mmHg 70%
    15:00 +13°C° 0.1 mm 10 mps 751 mmHg 71%
    16:00 +13°C° 0.1 mm 10 mps 750 mmHg 69%
    17:00 +13°C° 0.1 mm 9 mps 750 mmHg 67%
    18:00 +13°C° 0.1 mm 9 mps 750 mmHg 65%
    19:00 +13°C° 0 mm 8 mps 750 mmHg 66%
    20:00 +13°C° 0 mm 8 mps 751 mmHg 68%
    21:00 +12°C° 0 mm 8 mps 751 mmHg 69%
    22:00 +12°C° 0.2 mm 8 mps 751 mmHg 71%
    23:00 +12°C° 0.2 mm 8 mps 752 mmHg 73%

    Day after tomorrow, 23 September, Monday

    Time Temperature Precipitation Wind Pressure Humidity
    00:00 +11°C° 0.2 mm 7 mps 752 mmHg 76%
    01:00 +11°C° 0.1 mm 6 mps 752 mmHg 75%
    02:00 +10°C° 0.1 mm 5 mps 753 mmHg 75%
    03:00 +10°C° 0.1 mm 4 mps 753 mmHg 74%
    04:00 +10°C° 0 mm 4 mps 754 mmHg 73%
    05:00 +9°C° 0 mm 3 mps 754 mmHg 73%
    06:00 +8°C° 0 mm 3 mps 754 mmHg 72%
    07:00 +9°C° 0.1 mm 3 mps 755 mmHg 68%
    08:00 +8°C° 0.1 mm 4 mps 755 mmHg 64%
    09:00 +8°C° 0.1 mm 4 mps 756 mmHg 60%
    10:00 +10°C° 0 mm 4 mps 756 mmHg 52%
    11:00 +11°C° 0 mm 4 mps 757 mmHg 44%
    12:00 +12°C° 0 mm 4 mps 757 mmHg 35%
    13:00 +13°C° 0 mm 4 mps 757 mmHg 32%
    14:00 +13°C° 0 mm 4 mps 757 mmHg 30%
    15:00 +14°C° 0 mm 4 mps 757 mmHg 27%
    16:00 +13°C° 0 mm 3 mps 757 mmHg 29%
    17:00 +12°C° 0 mm 3 mps 757 mmHg 31%
    18:00 +12°C° 0 mm 2 mps 757 mmHg 34%
    19:00 +10°C° 0 mm 2 mps 758 mmHg 36%
    20:00 +10°C° 0 mm 1 mps 758 mmHg 38%
    21:00 +9°C° 0 mm 1 mps 758 mmHg 41%
    22:00 +9°C° 0 mm 1 mps 758 mmHg 42%
    23:00 +8°C° 0 mm 1 mps 758 mmHg 43%

    24 September, Tuesday

    Time Temperature Precipitation Wind Pressure Humidity
    00:00 +8°C° 0 mm 1 mps 758 mmHg 45%
    01:00 +8°C° 0 mm 1 mps 758 mmHg 46%
    02:00 +6°C° 0 mm 0 mps 758 mmHg 47%
    03:00 +6°C° 0 mm 0 mps 759 mmHg 49%
    04:00 +5°C° 0 mm 0 mps 758 mmHg 50%
    05:00 +5°C° 0 mm 0 mps 758 mmHg 51%
    06:00 +5°C° 0 mm 0 mps 758 mmHg 52%
    07:00 +8°C° 0 mm 1 mps 759 mmHg 47%
    08:00 +10°C° 0 mm 1 mps 759 mmHg 41%
    09:00 +12°C° 0 mm 2 mps 759 mmHg 36%
    10:00 +13°C° 0 mm 1 mps 759 mmHg 32%
    11:00 +14°C° 0 mm 1 mps 759 mmHg 29%
    12:00 +16°C° 0 mm 1 mps 758 mmHg 25%
    13:00 +16°C° 0 mm 1 mps 758 mmHg 24%
    14:00 +18°C° 0 mm 1 mps 757 mmHg 22%
    15:00 +18°C° 0 mm 1 mps 757 mmHg 21%
    16:00 +16°C° 0 mm 1 mps 757 mmHg 23%
    17:00 +15°C° 0 mm 1 mps 757 mmHg 26%
    18:00 +14°C° 0 mm 1 mps 757 mmHg 28%
    19:00 +13°C° 0 mm 2 mps 757 mmHg 30%
    20:00 +12°C° 0 mm 2 mps 757 mmHg 32%
    21:00 +10°C° 0 mm 2 mps 757 mmHg 34%
    22:00 +9°C° 0 mm 2 mps 757 mmHg 35%
    23:00 +9°C° 0 mm 2 mps 756 mmHg 36%

    25 September, Wednesday

    Time Temperature Precipitation Wind Pressure Humidity
    00:00 +8°C° 0 mm 2 mps 756 mmHg 38%
    01:00 +8°C° 0 mm 2 mps 756 mmHg 39%
    02:00 +8°C° 0 mm 2 mps 756 mmHg 41%
    03:00 +7°C° 0 mm 2 mps 756 mmHg 43%
    04:00 +8°C° 0 mm 1 mps 756 mmHg 45%
    05:00 +8°C° 0 mm 1 mps 756 mmHg 47%
    06:00 +8°C° 0 mm 1 mps 756 mmHg 49%
    07:00 +9°C° 0 mm 2 mps 756 mmHg 45%
    08:00 +11°C° 0 mm 3 mps 756 mmHg 42%
    09:00 +13°C° 0 mm 3 mps 756 mmHg 38%
    10:00 +14°C° 0 mm 3 mps 756 mmHg 35%
    11:00 +17°C° 0 mm 3 mps 756 mmHg 33%
    12:00 +19°C° 0 mm 3 mps 756 mmHg 30%
    13:00 +19°C° 0 mm 3 mps 756 mmHg 30%
    14:00 +20°C° 0 mm 3 mps 756 mmHg 29%
    15:00 +20°C° 0 mm 2 mps 755 mmHg 29%
    16:00 +19°C° 0 mm 2 mps 755 mmHg 32%
    17:00 +18°C° 0 mm 2 mps 755 mmHg 34%
    18:00 +17°C° 0 mm 2 mps 755 mmHg 37%
    19:00 +16°C° 0 mm 3 mps 755 mmHg 38%
    20:00 +14°C° 0 mm 3 mps 755 mmHg 40%
    21:00 +13°C° 0 mm 3 mps 756 mmHg 41%
    22:00 +12°C° 0 mm 3 mps 755 mmHg 46%
    23:00 +12°C° 0 mm 3 mps 755 mmHg 51%

    26 September, Thursday

    Time Temperature Precipitation Wind Pressure Humidity
    00:00 +11°C° 0 mm 3 mps 755 mmHg 56%
    01:00 +11°C° 0 mm 3 mps 755 mmHg 57%
    02:00 +10°C° 0 mm 3 mps 755 mmHg 59%
    03:00 +10°C° 0 mm 3 mps 755 mmHg 60%
    04:00 +10°C° 0 mm 3 mps 755 mmHg 62%
    05:00 +10°C° 0 mm 3 mps 755 mmHg 64%
    06:00 +10°C° 0 mm 3 mps 755 mmHg 66%
    07:00 +11°C° 0 mm 3 mps 755 mmHg 62%
    08:00 +13°C° 0 mm 4 mps 755 mmHg 58%
    09:00 +14°C° 0 mm 4 mps 755 mmHg 54%
    10:00 +15°C° 0 mm 4 mps 755 mmHg 56%
    11:00 +17°C° 0 mm 4 mps 755 mmHg 57%
    12:00 +17°C° 0 mm 5 mps 755 mmHg 58%
    13:00 +16°C° 0.2 mm 5 mps 755 mmHg 65%
    14:00 +15°C° 0.2 mm 5 mps 755 mmHg 72%
    15:00 +14°C° 0.2 mm 5 mps 755 mmHg 80%
    16:00 +14°C° 0 mm 5 mps 755 mmHg 81%
    17:00 +13°C° 0 mm 5 mps 754 mmHg 82%
    18:00 +13°C° 0 mm 5 mps 754 mmHg 83%
    19:00 +13°C° 0 mm 5 mps 754 mmHg 82%
    20:00 +13°C° 0 mm 4 mps 754 mmHg 80%
    21:00 +12°C° 0 mm 4 mps 754 mmHg 79%
    22:00 +12°C° 0.1 mm 4 mps 754 mmHg 79%
    23:00 +12°C° 0.1 mm 4 mps 754 mmHg 79%
    Show more